User: anonymous
Location: SAPM � Hemmingford
(45.0500°N, 73.5833°W)
Time: 03:03:49
(UTC-04:00)
Language:

Cosmos 1674 Rocket - Orbit

View from above orbital plane
View from above orbital plane
View from above satellite
View from above satellite

Ground track
Ground track

The orbit data is extracted from the following two-line orbital elements,

1 15945U 85069B   14245.45049345  .00000249  00000-0  27275-4 0  7420
2 15945 082.5306 006.8317 0020673 047.4013 019.7680 14.83392436569972
Epoch (UTC): 02 September 2014 10:48:42
Eccentricity: 0.0020673
inclination: 82.5306°
perigee height: 604 km
apogee height: 633 km
right ascension of ascending node: 6.8317°
argument of perigee: 47.4013°
revolutions per day: 14.83392436
mean anomaly at epoch: 19.7680°
orbit number at epoch: 56997

The dashed part of the orbit path shows where the satellite is in the earth's shadow,  

DLR